GLOBALSTAR M038 (25624 NORAD) Tracking and Keplerian Element Data

This shows tracking and keplerian element data for the satellite.

Feedback or suggestion? Click here.




ElementValue
Catalog25624
NameGLOBALSTAR M038
Epoch Orbit22529
Epoch Day354.03728604
Epoch Year2025
RAAN256.3409
Inclination51.9972
Eccentricity0.0002711
Argument of Perigee73.6135
Mean Anonmoly300.5143
Mean Motion12.32537555
Decay Rate-6.1E-07
L11 25624U 99004D 25354.03728604 -.00000061 00000+0 28251-3 0 9998
L22 25624 51.9972 256.3409 0002711 73.6135 300.5143 12.32537555225293



Live tracking and technical data element details for GLOBALSTAR M038 (NORAD 25624). GLOBALSTAR M038 can be tracked NOW for your location showing map with azimuth and elevation plus other details from your city location.







IsCatalogInMostPopularTable: catalog: 25624, numindb: 369
Update: records affected: 1



GetName: 25624 GLOBALSTAR M038

Hit Count: updated at: Sat, 07 Mar 2026 06:01:01 GMT